Location: downtown San Diego
(32.7310°N, 117.1990°W)
Time: 01:08:05
(UTC-07:00)

Cosmos 158 Rocket - Pass Details

Date: 14 June 2018
Orbit: 699 x 793 km, 74.0° (Epoch: 21 August)

Event Time Altitude Azimuth Distance (km) Brightness Sun altitude
Exits shadow 21:35:28 22° 172° (S) 1,679 5.3 -17.4°
Maximum altitude 21:38:49 54° 103° (ESE) 944 4.1 -17.9°
Drops below altitude 10° 21:43:57 10° 27° (NNE) 2,322 6.7 -18.6°
Sets 21:46:21 0° 23° (NNE) 3,239 7.6 -19.0°
